Weather past 2 weeks in Cayenne, French Guiana

Now
88 °F

Partly sunny.


Feels Like: 96 °F
Forecast: 75 / 87 °F
Wind: 8 mph from Northeast

Location: Cayenne / Rochambeau

Current Time: Aug 30, 2014 at 12:03:24 PM

Latest Report: Aug 30, 2014 at 11:30 AM


Visibility: N/A

Pressure: 29.98 "Hg

Humidity: 62%

Dew point: 73 °F

Location of CayenneLocation

Historic Weather in Cayenne — Graph

°F

Cayenne temperature yesterday

Maximum temperature yesterday: 91 °F (at 1:30 PM)
Minimum temperature yesterday: 70 °F (at 5:00 AM)
Average temperature yesterday: 80 °F

Past Weeks' High & Low Weather Summary

 TemperatureHumidityPressure
High91 °F (Aug 15, 1:30 PM)100% (Aug 17, 5:30 AM)30.01 "Hg (Aug 17, 5:30 AM)
Low70 °F (Aug 28, 3:30 AM)46% (Aug 27, 4:00 PM)29.80 "Hg (Aug 18, 2:30 PM)
Average80 °F80%29.91 "Hg
* Reported Aug 15 11:30 AM — Aug 30 11:00 AM, Cayenne, Weather by CustomWeather, © 2014

Note: Actual official high and low records may vary slightly from our data, if they occured in-between our weather recording intervals... More about our weather records

Advertising

Cayenne weather history for previous 24 hours

 ConditionsComfort  
Time TempWeatherWind HumidityBarometerVisibility
11:00 AM
Aug 30
88 °FPartly sunny.5 mph59%29.98 "HgN/A
10:30 AM88 °FScattered clouds.6 mph62%29.98 "HgN/A
10:00 AM86 °FBroken clouds.5 mph66%29.98 "HgN/A
9:30 AM84 °FPartly sunny.3 mph70%29.98 "HgN/A
9:00 AM82 °FScattered clouds.2 mph79%29.98 "HgN/A
8:30 AM79 °FClear.2 mph89%29.98 "HgN/A
8:00 AM77 °FClear.2 mph94%29.98 "HgN/A
7:30 AM75 °FPassing clouds.No wind94%29.98 "HgN/A
7:00 AM73 °FScattered clouds.No wind94%29.95 "HgN/A
6:30 AM73 °FFog.No wind94%29.95 "HgN/A
6:00 AM73 °FPartly cloudy.No wind94%29.95 "HgN/A
5:30 AM73 °FMostly cloudy.No wind94%29.95 "HgN/A
5:00 AM73 °FPassing clouds.2 mph94%29.95 "HgN/A
4:30 AM73 °FClear.2 mph94%29.95 "HgN/A
4:00 AM73 °FClear.No wind94%29.92 "HgN/A
3:30 AM73 °FClear.2 mph94%29.92 "HgN/A
3:00 AM73 °FClear.No wind94%29.92 "HgN/A
2:30 AM73 °FClear.No wind94%29.95 "HgN/A
2:00 AM75 °FClear.No wind94%29.95 "HgN/A
1:30 AM75 °FClear.No wind89%29.95 "HgN/A
1:00 AM77 °FClear.1 mph89%29.95 "HgN/A
12:30 AM77 °FClear.1 mph89%29.95 "HgN/A
12:00 AM77 °FWarm.2 mph89%29.98 "HgN/A
11:30 PM
Aug 29
77 °FClear.3 mph89%29.98 "HgN/A
11:00 PM77 °FClear.3 mph89%29.98 "HgN/A
10:30 PM79 °FClear.2 mph84%29.95 "HgN/A
10:00 PM77 °FClear.3 mph89%29.95 "HgN/A
9:30 PM79 °FClear.3 mph84%29.95 "HgN/A
9:00 PM79 °FClear.3 mph84%29.95 "HgN/A
8:30 PM81 °FClear.5 mph79%29.92 "HgN/A
8:00 PM81 °FClear.5 mph79%29.92 "HgN/A
7:30 PM81 °FClear.5 mph79%29.92 "HgN/A
7:00 PM82 °FClear.5 mph74%29.89 "HgN/A
6:30 PM82 °FClear.6 mph70%29.89 "HgN/A
6:00 PM84 °FClear.9 mph66%29.89 "HgN/A
4:00 PM88 °FClear.12 mph59%29.89 "HgN/A
3:30 PM90 °FHot.12 mph55%29.89 "HgN/A
3:00 PM90 °FHot.12 mph55%29.89 "HgN/A
2:30 PM88 °FLight rain. Partly sunny.7 mph59%29.89 "HgN/A
2:00 PM90 °FPartly sunny.9 mph55%29.89 "HgN/A
1:30 PM91 °FBroken clouds.7 mph52%29.92 "HgN/A
1:00 PM90 °FScattered clouds.5 mph55%29.92 "HgN/A
12:30 PM90 °FPartly sunny.2 mph52%29.95 "HgN/A
12:00 PM90 °FBroken clouds.5 mph52%29.95 "HgN/A
Weather by CustomWeather, © 2014

See weather overviewHow to use our weather pages